Find Starlink 34950

NORAD ID: 65193 Int'l Des: 2025-175 Owner: SPXS Country: US Constellation: starlink operational
LEOCIRCULARRETROGRADESSO

Live Position

Loading 3D Globe...

About Starlink 34950

Description loading...

Upcoming Passes

Passes for default location (London). Set your location on the main map for personalized predictions.

Altitude History

Loading altitude history...

Two-Line Element Set

1 65193U 25175V 26107.17041352 .00004658 00000-0 32679-3 0 9996
2 65193 97.6040 340.6311 0002320 90.9753 269.1739 15.05650325 38404
Epoch: Apr 17, 2026 • Age: 12 hours

Current Status

Altitude 552.0 km
Velocity 7.59 km/s
Sub-Earth Point 3.93°N, 75.34°E
Launch Date Aug 14, 2025
Age 0.6 years
Type internet

Technical Details

Classification Payload
Mass 575.00 kg
Dry Mass 530.00 kg
Total Mass 575.00 kg
Length 0.30 m
Diameter 4.10 m
Span 29.00 m
Shape Box + pan
Manufacturer SPXS
Bus Type Starlink V2MO
Phase Status In Orbit
Owner/State SPXS/US

Most Searched